Regional Weather Roundup
Issued by NWS

Home | Current Version | Previous Version | Graphics & Text | Print | Product List | Glossary On
Versions: 1 2 3 4 5 6 7 8 9 10 11 12 13 14 15 16 17 18 19 20 21 22 23 24 25 26 27 28 29 30 31 32 33 34 35 36 37 38 39 40 41 42 43 44 45 46 47 48 49 50
000
ASUS43 KLOT 220558
RWRIL

ILLINOIS REGIONAL WEATHER ROUNDUP
NATIONAL WEATHER SERVICE CHICAGO/ROMEOVILLE IL
100 AM CDT MON SEP 22 2014

NOTE: "FAIR" INDICATES FEW OR NO CLOUDS BELOW 12,000 FEET WITH NO
SIGNIFICANT WEATHER AND/OR OBSTRUCTIONS TO VISIBILITY.

* THESE STATIONS ARE NOT UNDER NWS QUALITY CONTROL. THEY ALSO MAY NOT
  REPORT WEATHER SUCH AS PRECIPITATION OR FOG.

ILZ001-002-007-009-015-016-024-220700-
NORTHWEST ILLINOIS

CITY           SKY/WX    TMP DP  RH WIND       PRES   REMARKS
MOLINE         CLEAR     54  46  74 N3        30.19R
6HR MIN TEMP:  54; 6HR MAX TEMP:  63;

$$

ILZ003-004-008-010-011-017-018-220700-
NORTH CENTRAL ILLINOIS

CITY           SKY/WX    TMP DP  RH WIND       PRES   REMARKS
ROCKFORD       NOT AVBL
$$

ILZ005-006-012>014-019>023-220700-
NORTHEAST ILLINOIS

CITY           SKY/WX    TMP DP  RH WIND       PRES   REMARKS
CHICAGO-OHARE  PTCLDY    51  43  74 N8        30.14S
6HR MIN TEMP:  51; 6HR MAX TEMP:  60;

CHICAGO-MIDWAY PTCLDY    53  44  71 NW7       30.14R
6HR MIN TEMP:  53; 6HR MAX TEMP:  61;

AURORA         CLEAR     43  40  89 NW3       30.16S
6HR MIN TEMP:  43; 6HR MAX TEMP:  58;

WAUKEGAN       CLEAR     47  42  83 NW5       30.16R
6HR MIN TEMP:  47; 6HR MAX TEMP:  56;

DUPAGE AIRPORT CLEAR     45  42  89 N5        30.15S
6HR MIN TEMP:  44; 6HR MAX TEMP:  59;

WHEELING       CLEAR     48  43  82 N5        30.16S
6HR MIN TEMP:  48; 6HR MAX TEMP:  58;

NORTHERLY ISL    N/A     56  47  71 N15         N/A
$$

LMZ740>746-220700-
SOUTHERN LAKE MICHIGAN

STATION/POSITION SKY/WX   TEMP    WIND        PRES    VSBY  WAVE
                          AIR SEA DIR/SP/G                  HT/PER
                          (F)     (DEG/KT/KT) (MB)    (MI)  (FT/S)
SOUTHERN BUOY              54 61  350/ 19/ 25 1020.3R         7/ 6
WAUKEGAN HARBOR            51     320/  6/  9   N/A
HARRISON CRIB              57     360/ 18/ 22   N/A
BURNHAM HARBOR             57     100/ 10/ 16   N/A
CALUMET HARBOR             56     350/  9/ 15 1019.2R
MICHIGAN CITY              56     350/ 22/ 27   N/A
MICHIGAN CITY 6N           57 64   10/ 17/ 25   N/A           9/ 8
ST. JOSEPH                 56 65  360/ 19/ 27   N/A           8/ 6
$$

ILZ025>027-034>036-040-047-049-050-058-095>099-220700-
WEST-CENTRAL ILLINOIS

CITY           SKY/WX    TMP DP  RH WIND       PRES   REMARKS
$$

ILZ028>032-037-038-041>044-048-051>054-059>061-220700-
CENTRAL ILLINOIS

CITY           SKY/WX    TMP DP  RH WIND       PRES   REMARKS
PEORIA         NOT AVBL
SPRINGFIELD    CLEAR     54  51  90 NW6       30.17R
6HR MIN TEMP:  54; 6HR MAX TEMP:  65;

TAYLORVILLE    NOT AVBL
$$

ILZ033-039-045-046-055>057-062-063-220700-
EAST-CENTRAL ILLINOIS

CITY           SKY/WX    TMP DP  RH WIND       PRES   REMARKS
CHAMPAIGN      CLEAR     50  48  93 NW3       30.15R
$$

ILZ079-100>102-220700-
SOUTHWEST ILLINOIS

CITY           SKY/WX    TMP DP  RH WIND       PRES   REMARKS
CAHOKIA*       CLEAR     58  50  75 N5        30.18R
$$

ILZ064>066-069>071-074>076-080>082-084>086-088>090-092>094-220700-
SOUTH-CENTRAL ILLINOIS

CITY           SKY/WX    TMP DP  RH WIND       PRES   REMARKS
CARBONDALE     CLEAR     56  51  84 NW3       30.15R
6HR MIN TEMP:  56; 6HR MAX TEMP:  70;

$$

ILZ067-068-072-073-078-083-087-091-220700-
SOUTHEAST ILLINOIS

CITY           SKY/WX    TMP DP  RH WIND       PRES   REMARKS
$$

ABBREVIATIONS USED IN REMARKS
   TC - TEMPERATURE IN CELSIUS
  WCI - WIND CHILL INDEX
   HX - HEAT INDEX
  VSB - VISIBILITY
$$




USA.gov is the U.S. government's official web portal to all federal, state and local government web resources and services.